Tracking 31027 objects as of 19-Jul-2025
HD Live streaming from Space Station
objects crossing your sky now

STARLINK-1629

Track STARLINK-1629 now!
10-day predictions
STARLINK-1629 is classified as:


NORAD ID: 46150
Int'l Code: 2020-057AK
Perigee: 484.7 km
Apogee: 492.7 km
Inclination: 53.0 °
Period: 94.2 minutes
Semi major axis: 6859 km
RCS: Unknown
Launch date: August 18, 2020
Source: United States (US)
Launch site: AIR FORCE EASTERN TEST RANGE (AFETR)
Your satellite tracking list
GEOTAIL
Track 1 satellite(s)




NASA's NSSDC Master Catalog

Two Line Element Set (TLE):
1 46150U 20057AK  25199.48985022  .00028621  00000-0  10397-2 0  9995
2 46150  53.0387 276.4361 0005802 246.2093 113.8297 15.28077159270931
Source of the keplerian elements: AFSPC